| time (UTC) | temp C | wind direction | speed KPH | gust KPH | rain 1hr cm | rain 24hr cm | rain mn cm | humidity % | barometer mb |
| 20260906120517 | 33 | 317 | 4.8 | 12.9 | 0.00 | 0.00 | 0.00 | 32 | 1010.4 |
| 20260906115537 | 33 | 317 | 4.8 | 12.9 | 0.00 | 0.00 | 0.00 | 31 | 1010.4 |
| 20260906114517 | 33 | 306 | 4.8 | 14.5 | 0.00 | 0.00 | 0.00 | 31 | 1010.4 |
| 20260906113538 | 33 | 324 | 6.4 | 17.7 | 0.00 | 0.00 | 0.00 | 29 | 1010.5 |
| 20260906112517 | 33 | 325 | 6.4 | 16.1 | 0.00 | 0.00 | 0.00 | 29 | 1010.6 |
| 20260906111517 | 33 | 4 | 4.8 | 11.3 | 0.00 | 0.00 | 0.00 | 30 | 1010.6 |
| 20260906110517 | 33 | 331 | 6.4 | 16.1 | 0.00 | 0.00 | 0.00 | 31 | 1010.8 |
| 20260906105517 | 33 | 322 | 4.8 | 12.9 | 0.00 | 0.00 | 0.00 | 34 | 1010.8 |
| 20260906104516 | 33 | 308 | 4.8 | 12.9 | 0.00 | 0.00 | 0.00 | 33 | 1010.9 |
| 20260906103517 | 33 | 318 | 4.8 | 11.3 | 0.00 | 0.00 | 0.00 | 35 | 1011.0 |
| 20260906102516 | 32 | 313 | 3.2 | 11.3 | 0.00 | 0.00 | 0.00 | 36 | 1011.1 |
| 20260906101517 | 32 | 320 | 4.8 | 16.1 | 0.00 | 0.00 | 0.00 | 35 | 1011.1 |
| 20260906100517 | 32 | 335 | 4.8 | 8.0 | 0.00 | 0.00 | 0.00 | 36 | 1011.2 |
| 20260906095536 | 31 | 318 | 4.8 | 16.1 | 0.00 | 0.00 | 0.00 | 39 | 1011.3 |
| 20260906094516 | 31 | 315 | 3.2 | 11.3 | 0.00 | 0.00 | 0.00 | 39 | 1011.4 |
| 20260906093516 | 31 | 354 | 3.2 | 11.3 | 0.00 | 0.00 | 0.00 | 40 | 1011.4 |
| 20260906092536 | 31 | 322 | 9.7 | 12.9 | 0.00 | 0.00 | 0.00 | 40 | 1011.6 |
| 20260906091515 | 30 | 312 | 6.4 | 14.5 | 0.00 | 0.00 | 0.00 | 41 | 1011.6 |
| 20260906090516 | 30 | 304 | 6.4 | 12.9 | 0.00 | 0.00 | 0.00 | 43 | 1011.7 |
| 20260906085516 | 30 | 330 | 4.8 | 12.9 | 0.00 | 0.00 | 0.00 | 42 | 1011.8 |
| 20260906084536 | 29 | 314 | 4.8 | 9.7 | 0.00 | 0.00 | 0.00 | 43 | 1011.8 |
| 20260906083516 | 29 | 327 | 6.4 | 14.5 | 0.00 | 0.00 | 0.00 | 43 | 1012.0 |
| 20260906082516 | 29 | 321 | 6.4 | 16.1 | 0.00 | 0.00 | 0.00 | 45 | 1012.2 |
| 20260906081536 | 28 | 323 | 4.8 | 11.3 | 0.00 | 0.00 | 0.00 | 47 | 1012.3 |
| 20260906080516 | 28 | 302 | 6.4 | 14.5 | 0.00 | 0.00 | 0.00 | 48 | 1012.4 |
| 20260906074515 | 28 | 315 | 6.4 | 17.7 | 0.00 | 0.00 | 0.00 | 51 | 1012.5 |
| 20260906073516 | 27 | 340 | 4.8 | 12.9 | 0.00 | 0.00 | 0.00 | 52 | 1012.6 |
| 20260906072536 | 27 | 321 | 6.4 | 16.1 | 0.00 | 0.00 | 0.00 | 52 | 1012.8 |
| 20260906071516 | 27 | 303 | 3.2 | 8.0 | 0.00 | 0.00 | 0.00 | 56 | 1012.8 |
| 20260906070516 | 26 | 334 | 6.4 | 11.3 | 0.00 | 0.00 | 0.00 | 56 | 1012.9 |
| 20260906065516 | 26 | 323 | 3.2 | 14.5 | 0.00 | 0.00 | 0.00 | 68 | 1013.0 |
| 20260906064516 | 26 | 312 | 3.2 | 9.7 | 0.00 | 0.00 | 0.00 | 74 | 1013.1 |
| 20260906063516 | 25 | 299 | 3.2 | 8.0 | 0.00 | 0.00 | 0.00 | 76 | 1013.1 |
| 20260906062516 | 25 | 317 | 3.2 | 8.0 | 0.00 | 0.00 | 0.00 | 80 | 1013.1 |
| 20260906061516 | 25 | 309 | 3.2 | 6.4 | 0.00 | 0.00 | 0.00 | 84 | 1013.2 |
| 20260906060516 | 24 | 286 | 3.2 | 8.0 | 0.00 | 0.00 | 0.00 | 87 | 1013.2 |
| 20260906055516 | 23 | 301 | 3.2 | 11.3 | 0.00 | 0.00 | 0.00 | 93 | 1013.3 |
| 20260906054516 | 23 | 295 | 1.6 | 6.4 | 0.00 | 0.00 | 0.00 | 96 | 1013.3 |
| 20260906053516 | 23 | 309 | 3.2 | 8.0 | 0.00 | 0.00 | 0.00 | 97 | 1013.3 |
| 20260906052516 | 23 | 306 | 3.2 | 6.4 | 0.00 | 0.00 | 0.00 | 99 | 1013.3 |
| 20260906051516 | 22 | 314 | 3.2 | 8.0 | 0.00 | 0.00 | 0.00 | 100 | 1013.2 |
| 20260906050516 | 22 | 299 | 3.2 | 4.8 | 0.00 | 0.00 | 0.00 | 100 | 1013.2 |
| 20260906045516 | 22 | 319 | 1.6 | 3.2 | 0.00 | 0.00 | 0.00 | 100 | 1013.2 |
| 20260906044516 | 21 | 314 | 1.6 | 3.2 | 0.00 | 0.00 | 0.00 | 100 | 1013.2 |
| 20260906043516 | 21 | 277 | 0.0 | 3.2 | 0.00 | 0.00 | 0.00 | 100 | 1013.2 |
| 20260906042516 | 20 | 253 | 0.0 | 1.6 | 0.00 | 0.00 | 0.00 | 100 | 1013.3 |
| 20260906041536 | 20 | 230 | 0.0 | 1.6 | 0.00 | 0.00 | 0.00 | 100 | 1013.3 |
| 20260906040536 | 20 | 230 | 0.0 | 1.6 | 0.00 | 0.00 | 0.00 | 100 | 1013.2 |
| 20260906035516 | 19 | 232 | 0.0 | 1.6 | 0.00 | 0.00 | 0.00 | 98 | 1013.3 |
| 20260906034516 | 19 | 253 | 0.0 | 0.0 | 0.00 | 0.00 | 0.00 | 97 | 1013.3 |
| 20260906033517 | 19 | 257 | 0.0 | 0.0 | 0.00 | 0.00 | 0.00 | 97 | 1013.4 |
| 20260906032537 | 18 | 244 | 0.0 | 1.6 | 0.00 | 0.00 | 0.00 | 96 | 1013.3 |
| 20260906031516 | 18 | 232 | 0.0 | 1.6 | 0.00 | 0.00 | 0.00 | 96 | 1013.3 |
| 20260906030516 | 18 | 263 | 0.0 | 0.0 | 0.00 | 0.00 | 0.00 | 95 | 1013.2 |
| 20260906025516 | 18 | 264 | 0.0 | 1.6 | 0.00 | 0.00 | 0.00 | 95 | 1013.2 |
| 20260906024516 | 18 | 263 | 0.0 | 1.6 | 0.00 | 0.00 | 0.00 | 95 | 1013.2 |
| 20260906023536 | 18 | 258 | 0.0 | 1.6 | 0.00 | 0.00 | 0.00 | 94 | 1013.1 |
| 20260906022516 | 18 | 257 | 0.0 | 0.0 | 0.00 | 0.00 | 0.00 | 93 | 1013.1 |
| 20260906021517 | 18 | 271 | 0.0 | 0.0 | 0.00 | 0.00 | 0.00 | 93 | 1013.3 |
| 20260906020516 | 18 | 299 | 0.0 | 0.0 | 0.00 | 0.00 | 0.00 | 93 | 1013.3 |
| 20260906015516 | 18 | 293 | 0.0 | 0.0 | 0.00 | 0.00 | 0.00 | 92 | 1013.3 |
| 20260906014516 | 18 | 271 | 0.0 | 0.0 | 0.00 | 0.00 | 0.00 | 92 | 1013.3 |
| 20260906013516 | 18 | 252 | 0.0 | 0.0 | 0.00 | 0.00 | 0.00 | 91 | 1013.3 |
| 20260906012516 | 18 | 0.0 | 0.0 | 0.00 | 0.00 | 0.00 | 90 | 1013.3 | |
| 20260906011536 | 19 | 280 | 0.0 | 0.0 | 0.00 | 0.00 | 0.00 | 90 | 1013.4 |
| 20260906010536 | 19 | 303 | 0.0 | 0.0 | 0.00 | 0.00 | 0.00 | 89 | 1013.4 |
| 20260906005516 | 19 | 323 | 0.0 | 0.0 | 0.00 | 0.00 | 0.00 | 89 | 1013.4 |
| 20260906004516 | 19 | 285 | 0.0 | 0.0 | 0.00 | 0.00 | 0.00 | 88 | 1013.5 |
| 20260906003517 | 20 | 329 | 0.0 | 0.0 | 0.00 | 0.00 | 0.00 | 88 | 1013.5 |
| 20260906001517 | 20 | 0.0 | 0.0 | 0.00 | 0.00 | 0.00 | 88 | 1013.6 | |
| 20260906000517 | 20 | 0.0 | 0.0 | 0.00 | 0.00 | 0.00 | 88 | 1013.5 | |
| 20260905235521 | 20 | 244 | 0.0 | 0.0 | 0.00 | 0.00 | 0.00 | 88 | 1013.4 |
| 20260905234516 | 20 | 254 | 0.0 | 0.0 | 0.00 | 0.00 | 0.00 | 87 | 1013.4 |
| 20260905232516 | 20 | 231 | 0.0 | 1.6 | 0.00 | 0.00 | 0.00 | 87 | 1013.5 |
| 20260905231516 | 20 | 228 | 0.0 | 1.6 | 0.00 | 0.00 | 0.00 | 87 | 1013.6 |
| 20260905230521 | 20 | 226 | 0.0 | 1.6 | 0.00 | 0.00 | 0.00 | 86 | 1013.5 |
| 20260905225516 | 21 | 224 | 0.0 | 3.2 | 0.00 | 0.00 | 0.00 | 85 | 1013.5 |
| 20260905224516 | 21 | 224 | 0.0 | 1.6 | 0.00 | 0.00 | 0.00 | 84 | 1013.6 |
| 20260905223516 | 21 | 236 | 0.0 | 3.2 | 0.00 | 0.00 | 0.00 | 83 | 1013.5 |
| 20260905222516 | 21 | 223 | 0.0 | 1.6 | 0.00 | 0.00 | 0.00 | 82 | 1013.6 |
| 20260905221516 | 21 | 235 | 0.0 | 3.2 | 0.00 | 0.00 | 0.00 | 82 | 1013.6 |
| 20260905220537 | 21 | 239 | 0.0 | 1.6 | 0.00 | 0.00 | 0.00 | 81 | 1013.6 |
| 20260905215516 | 21 | 251 | 0.0 | 3.2 | 0.00 | 0.00 | 0.00 | 80 | 1013.6 |
| 20260905214516 | 21 | 238 | 0.0 | 3.2 | 0.00 | 0.00 | 0.00 | 80 | 1013.7 |
| 20260905213521 | 21 | 243 | 1.6 | 6.4 | 0.00 | 0.00 | 0.00 | 77 | 1013.7 |
| 20260905212516 | 21 | 244 | 0.0 | 4.8 | 0.00 | 0.00 | 0.00 | 75 | 1013.9 |
| 20260905211516 | 21 | 264 | 0.0 | 3.2 | 0.00 | 0.00 | 0.00 | 74 | 1013.9 |
| 20260905210536 | 21 | 249 | 1.6 | 3.2 | 0.00 | 0.00 | 0.00 | 73 | 1014.0 |
| 20260905205541 | 21 | 261 | 1.6 | 4.8 | 0.00 | 0.00 | 0.00 | 72 | 1014.0 |
| 20260905204516 | 21 | 269 | 0.0 | 3.2 | 0.00 | 0.00 | 0.00 | 70 | 1014.1 |
| 20260905203516 | 21 | 238 | 0.0 | 3.2 | 0.00 | 0.00 | 0.00 | 70 | 1014.2 |
| 20260905202537 | 21 | 244 | 0.0 | 1.6 | 0.00 | 0.00 | 0.00 | 70 | 1014.2 |
| 20260905201517 | 21 | 259 | 0.0 | 0.0 | 0.00 | 0.00 | 0.00 | 69 | 1014.3 |
| 20260905200516 | 21 | 283 | 0.0 | 0.0 | 0.00 | 0.00 | 0.00 | 68 | 1014.3 |
| 20260905195516 | 21 | 277 | 0.0 | 0.0 | 0.00 | 0.00 | 0.00 | 68 | 1014.3 |
| 20260905194516 | 21 | 270 | 0.0 | 0.0 | 0.00 | 0.00 | 0.00 | 66 | 1014.3 |
| 20260905193516 | 22 | 270 | 0.0 | 0.0 | 0.00 | 0.00 | 0.00 | 65 | 1014.4 |
| 20260905192538 | 22 | 240 | 0.0 | 1.6 | 0.00 | 0.00 | 0.00 | 64 | 1014.4 |
| 20260905191516 | 22 | 290 | 0.0 | 1.6 | 0.00 | 0.00 | 0.00 | 63 | 1014.5 |
| 20260905190516 | 22 | 294 | 0.0 | 0.0 | 0.00 | 0.00 | 0.00 | 62 | 1014.4 |
| 20260905185516 | 23 | 285 | 0.0 | 1.6 | 0.00 | 0.00 | 0.00 | 61 | 1014.5 |
| 20260905184517 | 23 | 281 | 0.0 | 1.6 | 0.00 | 0.00 | 0.00 | 60 | 1014.6 |
| 20260905183516 | 23 | 294 | 0.0 | 3.2 | 0.00 | 0.00 | 0.00 | 59 | 1014.6 |
| 20260905182516 | 23 | 264 | 0.0 | 1.6 | 0.00 | 0.00 | 0.00 | 57 | 1014.7 |
| 20260905181516 | 23 | 279 | 0.0 | 1.6 | 0.00 | 0.00 | 0.00 | 57 | 1014.8 |
| 20260905180516 | 23 | 249 | 0.0 | 0.0 | 0.00 | 0.00 | 0.00 | 56 | 1014.8 |
| 20260905175516 | 23 | 271 | 0.0 | 1.6 | 0.00 | 0.00 | 0.00 | 55 | 1014.8 |
| 20260905174516 | 24 | 275 | 0.0 | 0.0 | 0.00 | 0.00 | 0.00 | 53 | 1014.8 |
| 20260905173516 | 25 | 276 | 0.0 | 0.0 | 0.00 | 0.00 | 0.00 | 52 | 1014.8 |
| 20260905172517 | 25 | 333 | 0.0 | 0.0 | 0.00 | 0.00 | 0.00 | 50 | 1014.8 |
| 20260905171516 | 25 | 5 | 0.0 | 0.0 | 0.00 | 0.00 | 0.00 | 49 | 1014.7 |
| 20260905170516 | 26 | 346 | 0.0 | 0.0 | 0.00 | 0.00 | 0.00 | 48 | 1014.6 |
| 20260905165516 | 26 | 29 | 0.0 | 1.6 | 0.00 | 0.00 | 0.00 | 47 | 1014.6 |
| 20260905164536 | 26 | 24 | 0.0 | 1.6 | 0.00 | 0.00 | 0.00 | 47 | 1014.4 |
| 20260905163536 | 26 | 0 | 0.0 | 1.6 | 0.00 | 0.00 | 0.00 | 46 | 1014.4 |
| 20260905162518 | 27 | 44 | 0.0 | 1.6 | 0.00 | 0.00 | 0.00 | 44 | 1014.3 |
| 20260905161516 | 27 | 39 | 0.0 | 1.6 | 0.00 | 0.00 | 0.00 | 42 | 1014.1 |
| 20260905160536 | 28 | 58 | 0.0 | 3.2 | 0.00 | 0.00 | 0.00 | 41 | 1014.1 |
| 20260905155536 | 28 | 50 | 1.6 | 4.8 | 0.00 | 0.00 | 0.00 | 40 | 1013.9 |
| 20260905154516 | 28 | 44 | 1.6 | 4.8 | 0.00 | 0.00 | 0.00 | 39 | 1013.8 |
| 20260905153517 | 29 | 44 | 1.6 | 4.8 | 0.00 | 0.00 | 0.00 | 37 | 1013.8 |
| 20260905152536 | 29 | 50 | 1.6 | 8.0 | 0.00 | 0.00 | 0.00 | 37 | 1013.7 |
| 20260905151536 | 30 | 54 | 1.6 | 6.4 | 0.00 | 0.00 | 0.00 | 36 | 1013.7 |
| 20260905150516 | 30 | 54 | 3.2 | 6.4 | 0.00 | 0.00 | 0.00 | 35 | 1013.7 |
| 20260905145517 | 30 | 46 | 1.6 | 6.4 | 0.00 | 0.00 | 0.00 | 34 | 1013.7 |
| 20260905144516 | 30 | 47 | 1.6 | 4.8 | 0.00 | 0.00 | 0.00 | 33 | 1013.8 |
| 20260905143516 | 31 | 312 | 3.2 | 11.3 | 0.00 | 0.00 | 0.00 | 32 | 1013.8 |
| 20260905142516 | 32 | 321 | 3.2 | 9.7 | 0.00 | 0.00 | 0.00 | 30 | 1013.8 |
| 20260905141516 | 32 | 335 | 3.2 | 9.7 | 0.00 | 0.00 | 0.00 | 30 | 1013.8 |
| 20260905135516 | 33 | 1 | 1.6 | 4.8 | 0.00 | 0.00 | 0.00 | 28 | 1013.8 |
| 20260905134516 | 34 | 304 | 3.2 | 6.4 | 0.00 | 0.00 | 0.00 | 28 | 1013.8 |
| 20260905133516 | 34 | 319 | 3.2 | 8.0 | 0.00 | 0.00 | 0.00 | 27 | 1013.9 |
| 20260905132516 | 34 | 357 | 3.2 | 9.7 | 0.00 | 0.00 | 0.00 | 27 | 1013.9 |
| 20260905131516 | 35 | 359 | 4.8 | 9.7 | 0.00 | 0.00 | 0.00 | 27 | 1013.9 |
| 20260905130524 | 35 | 0 | 3.2 | 6.4 | 0.00 | 0.00 | 0.00 | 27 | 1013.9 |
| 20260905125535 | 35 | 0 | 3.2 | 9.7 | 0.00 | 0.00 | 0.00 | 27 | 1014.0 |
| 20260905124518 | 35 | 0 | 3.2 | 8.0 | 0.00 | 0.00 | 0.00 | 27 | 1014.0 |
| 20260905123546 | 34 | 0 | 1.6 | 4.8 | 0.00 | 0.00 | 0.00 | 28 | 1014.0 |
| 20260905122516 | 33 | 55 | 3.2 | 8.0 | 0.00 | 0.00 | 0.00 | 28 | 1014.1 |
| 20260905121516 | 33 | 30 | 1.6 | 6.4 | 0.00 | 0.00 | 0.00 | 27 | 1014.1 |